#timestamp,LO_Frequency,Hit,StdDev 
1505815215.4,286046997.6,N
1505815235.2,286046997.1,N
1505815255.1,286046997.6,N
1505815256.0,286046997.6,N
1505815275.8,286046997.9,N
1505815295.7,286046994.9,Y
1505815315.5,286046998.8,P
1505815335.3,286047001.2,P
1505815355.2,286047001.0,N
1505815375.0,286046998.6,N
1505815375.9,286046998.6,N
1505815395.8,286046999.3,N
1505815415.6,286046999.5,N
1505815435.4,286046999.4,N
1505815455.3,286046999.0,N
1505815475.1,286046999.0,N
1505815495.8,286046998.8,N
1505815515.7,286046999.4,N
1505815535.5,286046997.0,Y
1505815555.4,286046998.3,P
1505815575.2,286046999.2,N
1505815595.0,286046998.7,N
1505815596.0,286046998.7,Y
1505815615.8,286046998.5,P
1505815635.6,286047000.9,P
1505815655.5,286047000.1,N
1505815675.3,286047000.5,N
1505815695.1,286047002.5,N
1505815715.9,286047002.6,N
1505815735.7,286047001.9,N
1505815755.6,286047002.2,N
1505815775.4,286046999.9,N
1505815795.2,286046998.1,N
1505815815.1,286047001.1,N
1505815816.0,286047001.1,N
1505815835.8,286046998.6,N
1505815855.6,286046999.0,N
1505815875.5,286046998.3,N
1505815895.3,286046996.9,N
1505815915.2,286046996.9,N
1505815935.9,286046998.6,N
1505815955.7,286046998.8,N
1505815975.6,286046996.9,N
1505815995.4,286046999.6,N
1505816015.3,286046997.7,N
1505816035.1,286046997.8,N
1505816036.0,286046997.8,N
1505816055.8,286046996.6,N
1505816075.7,286046997.7,N
1505816095.5,286046997.1,N
1505816115.3,286046998.3,N
1505816135.2,286046999.5,N
1505816155.0,286046999.6,N
1505816155.9,286046999.6,N
1505816175.8,286046997.3,N
1505816195.6,286046997.0,N
1505816215.4,286046997.9,N
1505816235.3,286046997.1,N
1505816255.1,286046997.0,N
1505816275.9,286046995.4,Y
1505816295.7,286046996.7,P
1505816315.5,286046996.6,P
1505816335.4,286046999.1,N
1505816355.2,286046998.6,N
1505816375.0,286046998.4,N
1505816375.9,286046998.4,N
1505816395.8,286046998.6,N
1505816415.6,286046998.3,N
1505816435.5,286046999.6,N
1505816455.3,286046998.5,N
1505816475.1,286046998.4,N
1505816495.9,286046997.0,Y
1505816515.7,286047001.1,P
1505816535.6,286046998.4,N
1505816555.4,286046998.6,N
1505816575.2,286046999.7,N
1505816595.1,286047000.4,N
1505816596.0,286047000.4,N
1505816615.8,286046999.9,N
1505816635.6,286047000.3,N
1505816655.5,286046998.6,N
1505816675.3,286046998.2,N
1505816695.2,286046998.7,N
1505816715.9,286046998.7,N
1505816735.7,286047000.8,N
1505816755.6,286047000.8,N
1505816775.4,286047001.0,N
1505816795.3,286046998.4,N
1505816815.1,286047000.0,N
1505816816.0,286047000.0,N
1505816835.8,286047000.4,N
1505816855.7,286046999.7,N
1505816875.5,286047000.3,N
1505816895.3,286047002.8,N
1505816915.2,286046999.9,N
1505816935.0,286047002.3,N
1505816935.9,286047002.3,N
1505816955.8,286047000.9,N
1505816975.6,286046998.2,N
1505816995.4,286046998.5,N
1505817015.3,286047001.0,N
1505817035.1,286046998.2,N
1505817055.9,286046998.1,N
1505817075.7,286046998.2,N
1505817095.5,286047000.6,N
1505817115.4,286047000.8,N
1505817135.2,286047000.6,N
1505817155.0,286047000.3,N
1505817155.9,286047000.3,N
1505817175.8,286047000.2,N
1505817195.6,286047001.0,N
1505817215.5,286047000.9,N
1505817235.3,286047002.8,N
1505817255.1,286047000.4,N
1505817275.9,286047002.7,N
1505817295.7,286046999.8,N
1505817315.6,286047000.9,N
1505817335.4,286047001.4,N
1505817355.2,286047001.9,N
1505817375.1,286047004.2,Y
1505817376.0,286047004.2,P
1505817395.8,286047002.6,N
1505817415.7,286046999.7,N
1505817435.5,286046999.8,N
1505817455.3,286047002.2,N
1505817475.2,286047002.3,N
1505817495.9,286047002.6,N
1505817515.7,286047001.9,N
1505817535.6,286047002.6,N
1505817555.4,286047002.2,N
1505817575.3,286047001.3,N
1505817595.1,286047002.7,N
1505817596.0,286047002.7,N
1505817615.8,286047001.6,N
1505817635.7,286047001.3,N
1505817655.5,286047001.9,N
1505817675.3,286047000.1,N
1505817695.2,286047002.4,N
1505817715.0,286047002.8,N
1505817715.9,286047002.8,N
1505817735.8,286047001.8,N
1505817755.6,286047002.3,N
1505817775.4,286047000.3,N
1505817795.3,286047002.0,N
1505817815.1,286046999.8,N
1505817835.9,286047000.5,N
1505817855.7,286047000.4,N
1505817875.5,286047002.4,N
1505817895.4,286047000.6,N
1505817915.2,286047000.3,N
1505817935.0,286047002.3,N
1505817935.9,286047002.3,N
1505817955.8,286047002.0,N
1505817975.6,286047002.4,N
1505817995.5,286047004.3,Y
1505818015.3,286046999.8,P
1505818035.2,286047000.1,N
1505818055.9,286047002.5,N
1505818075.7,286047002.8,N
1505818095.6,286047002.3,N
1505818115.4,286047000.9,N
1505818135.2,286046999.8,N
1505818155.1,286047001.7,N
1505818156.0,286047001.7,N
1505818175.8,286047001.8,N
1505818195.7,286047001.8,N
1505818215.5,286047002.5,N
1505818235.3,286047001.8,N
1505818255.2,286047001.4,N
1505818275.0,286047002.7,N
1505818275.9,286047002.7,N
1505818295.8,286047002.6,N
1505818315.6,286047001.9,N
1505818335.4,286046999.7,N
1505818355.3,286047002.3,N
1505818375.1,286047000.1,N
1505818395.8,286047002.0,N
1505818415.7,286047002.3,N
1505818435.5,286047002.8,N
1505818455.4,286047001.4,N
1505818475.2,286047004.4,Y
1505818495.0,286047000.2,P
1505818495.9,286047000.2,N
1505818515.8,286047000.5,N
1505818535.6,286046998.4,N
1505818555.5,286047000.3,N
1505818575.3,286047000.7,N
1505818595.1,286047000.0,N
1505818615.9,286046999.9,N
1505818635.7,286047001.0,N
1505818655.5,286047000.9,N
1505818675.4,286047001.2,N
1505818695.2,286047000.4,N
1505818715.1,286047001.1,N
1505818716.0,286047001.1,N
1505818735.8,286047002.7,Y
1505818755.6,286047002.8,P
1505818775.5,286047002.3,N
1505818795.3,286047002.5,N
